,,Stat6,,Stat2,,Stat8,,Stat9,,Stat10,,Wind1,,Wind1,
time,status,PA1M_AVG,status,PR1M_SUM,status,RH1M_AVG,status,SR1M_AVG,status,TA1M_AVG,status,W1dAve1m,status,W1sAve1m,
2004-05-14, 00:00:00,VALID,916.04,VALID,0,VALID,98.6282,VALID,0,VALID,20.4601,VALID,88,VALID,0.683689,
2004-05-14, 00:01:00,VALID,916.032,VALID,0,VALID,98.6791,VALID,0,VALID,20.4924,VALID,83,VALID,0.641197,
2004-05-14, 00:02:00,VALID,916.029,VALID,0,VALID,98.5989,VALID,0,VALID,20.5019,VALID,88,VALID,0.683866,
2004-05-14, 00:03:00,VALID,916.021,VALID,0,VALID,98.4591,VALID,-0.0339617,VALID,20.5247,VALID,103,VALID,0.678646,
2004-05-14, 00:04:00,VALID,916.022,VALID,0,VALID,98.337,VALID,-0.0679233,VALID,20.5541,VALID,106,VALID,0.604581,
2004-05-14, 00:05:00,VALID,916.036,VALID,0,VALID,98.1106,VALID,-0.0679233,VALID,20.5603,VALID,83,VALID,0.429506,
2004-05-14, 00:06:00,VALID,916.034,VALID,0,VALID,97.8856,VALID,-0.0679233,VALID,20.5869,VALID,83,VALID,0.156432,
2004-05-14, 00:07:00,VALID,916.028,VALID,0,VALID,97.4596,VALID,-0.0849042,VALID,20.5543,VALID,83,VALID,0.0091712,
2004-05-14, 00:08:00,VALID,916.023,VALID,0,VALID,97.3451,VALID,-0.0509425,VALID,20.5414,VALID,83,VALID,0.198509,
2004-05-14, 00:09:00,VALID,916.009,VALID,0,VALID,97.2701,VALID,-0.101885,VALID,20.522,VALID,83,VALID,0.383398,
2004-05-14, 00:10:00,VALID,916.01,VALID,0,VALID,97.1252,VALID,-0.0509425,VALID,20.4924,VALID,83,VALID,0.4246,
2004-05-14, 00:11:00,VALID,916.004,VALID,0,VALID,97.4392,VALID,-0.0849042,VALID,20.4929,VALID,83,VALID,0.481179,
2004-05-14, 00:12:00,VALID,916.011,VALID,0,VALID,97.5931,VALID,-0.0169808,VALID,20.4999,VALID,83,VALID,0.399709,
2004-05-14, 00:13:00,VALID,916.018,VALID,0,VALID,97.7533,VALID,-0.0509425,VALID,20.4862,VALID,83,VALID,0.47061,
2004-05-14, 00:14:00,VALID,916.016,VALID,0,VALID,97.8131,VALID,0,VALID,20.483,VALID,83,VALID,0.504836,
2004-05-14, 00:15:00,VALID,915.988,VALID,0,VALID,97.8004,VALID,0,VALID,20.4892,VALID,94,VALID,0.562686,
2004-05-14, 00:16:00,VALID,915.982,VALID,0,VALID,97.7279,VALID,-0.0509425,VALID,20.4792,VALID,103,VALID,0.681641,
2004-05-14, 00:17:00,VALID,915.968,VALID,0,VALID,97.6173,VALID,-0.0509425,VALID,20.4698,VALID,116,VALID,0.714844,
2004-05-14, 00:18:00,VALID,915.954,VALID,0,VALID,97.5664,VALID,-0.0169808,VALID,20.4574,VALID,122,VALID,0.686967,
2004-05-14, 00:19:00,VALID,915.954,VALID,0,VALID,97.7012,VALID,-0.0509425,VALID,20.4539,VALID,122,VALID,0.649581,
2004-05-14, 00:20:00,VALID,915.935,VALID,0,VALID,97.8589,VALID,-0.0169808,VALID,20.4415,VALID,122,VALID,0.627976,
2004-05-14, 00:21:00,VALID,915.908,VALID,0,VALID,97.9949,VALID,-0.0509425,VALID,20.4281,VALID,122,VALID,0.651634,
2004-05-14, 00:22:00,VALID,915.896,VALID,0,VALID,97.9619,VALID,-0.0509425,VALID,20.4251,VALID,121,VALID,0.670058,
2004-05-14, 00:23:00,VALID,915.873,VALID,0,VALID,97.7724,VALID,-0.0509425,VALID,20.399,VALID,117,VALID,0.436012,
2004-05-14, 00:24:00,VALID,915.854,VALID,0,VALID,96.8963,VALID,-0.0169808,VALID,20.3118,VALID,116,VALID,0.324033,
2004-05-14, 00:25:00,VALID,915.839,VALID,0,VALID,96.5173,VALID,0,VALID,20.205,VALID,116,VALID,0.382994,
2004-05-14, 00:26:00,VALID,915.824,VALID,0,VALID,96.8289,VALID,-0.0679233,VALID,20.1667,VALID,116,VALID,0.281064,
2004-05-14, 00:27:00,VALID,915.819,VALID,0,VALID,97.7139,VALID,-0.0339617,VALID,20.1856,VALID,116,VALID,0.58418,
2004-05-14, 00:28:00,VALID,915.815,VALID,0,VALID,97.7635,VALID,-0.0509425,VALID,20.1985,VALID,116,VALID,0.350472,
2004-05-14, 00:29:00,VALID,915.816,VALID,0,VALID,97.6147,VALID,-0.0339617,VALID,20.1864,VALID,116,VALID,0.326736,
2004-05-14, 00:30:00,VALID,915.797,VALID,0,VALID,97.4214,VALID,-0.0849042,VALID,20.1441,VALID,116,VALID,0.288889,
2004-05-14, 00:31:00,VALID,915.777,VALID,0,VALID,97.4303,VALID,-0.0849042,VALID,20.0925,VALID,116,VALID,0.474516,
2004-05-14, 00:32:00,VALID,915.762,VALID,0,VALID,98.1094,VALID,-0.0169808,VALID,20.086,VALID,111,VALID,0.800195,
2004-05-14, 00:33:00,VALID,915.751,VALID,0,VALID,98.4387,VALID,-0.0339617,VALID,20.0984,VALID,108,VALID,1.06534,
2004-05-14, 00:34:00,VALID,915.748,VALID,0,VALID,98.6091,VALID,-0.0339617,VALID,20.1049,VALID,116,VALID,1.0585,
2004-05-14, 00:35:00,VALID,915.727,VALID,0,VALID,98.5697,VALID,-0.0339617,VALID,20.0959,VALID,122,VALID,0.942264,
2004-05-14, 00:36:00,VALID,915.71,VALID,0,VALID,98.7401,VALID,-0.0339617,VALID,20.0825,VALID,128,VALID,1.18164,
2004-05-14, 00:37:00,VALID,915.7,VALID,0,VALID,98.8215,VALID,-0.0339617,VALID,20.0885,VALID,128,VALID,1.12609,
2004-05-14, 00:38:00,VALID,915.685,VALID,0,VALID,98.9003,VALID,0,VALID,20.0959,VALID,127,VALID,1.06395,
2004-05-14, 00:39:00,VALID,915.687,VALID,0,VALID,98.9563,VALID,0,VALID,20.0858,VALID,126,VALID,1.03054,
2004-05-14, 00:40:00,VALID,915.675,VALID,0,VALID,98.9715,VALID,-0.0679233,VALID,20.0887,VALID,126,VALID,1.16061,
2004-05-14, 00:41:00,VALID,915.67,VALID,0,VALID,98.9626,VALID,-0.0169808,VALID,20.0828,VALID,127,VALID,1.13772,
2004-05-14, 00:42:00,VALID,915.665,VALID,0,VALID,98.9372,VALID,-0.0169808,VALID,20.0664,VALID,131,VALID,0.800391,
2004-05-14, 00:43:00,VALID,915.638,VALID,0,VALID,98.9817,VALID,-0.0169808,VALID,20.0567,VALID,119,VALID,0.955529,
2004-05-14, 00:44:00,VALID,915.634,VALID,0,VALID,98.9423,VALID,-0.0169808,VALID,20.0338,VALID,125,VALID,1.05414,
2004-05-14, 00:45:00,VALID,915.604,VALID,0,VALID,98.9105,VALID,-0.0169808,VALID,20.0309,VALID,124,VALID,1.02241,
2004-05-14, 00:46:00,VALID,915.613,VALID,0,VALID,99.0402,VALID,-0.0339617,VALID,20.0182,VALID,127,VALID,0.892401,
2004-05-14, 00:47:00,VALID,915.606,VALID,0,VALID,99.0453,VALID,-0.0169808,VALID,20.0015,VALID,127,VALID,0.728237,
2004-05-14, 00:48:00,VALID,915.602,VALID,0,VALID,99.1318,VALID,0,VALID,19.9896,VALID,121,VALID,1.02326,
2004-05-14, 00:49:00,VALID,915.616,VALID,0,VALID,99.1165,VALID,-0.0339617,VALID,19.9926,VALID,119,VALID,0.927604,
2004-05-14, 00:50:00,VALID,915.616,VALID,0,VALID,99.1038,VALID,-0.0509425,VALID,19.9603,VALID,117,VALID,1.11452,
2004-05-14, 00:51:00,VALID,915.624,VALID,0,VALID,99.1496,VALID,-0.0679233,VALID,19.9474,VALID,122,VALID,1.19661,
2004-05-14, 00:52:00,VALID,915.635,VALID,0,VALID,99.1457,VALID,-0.0849042,VALID,19.9245,VALID,125,VALID,0.884718,
2004-05-14, 00:53:00,VALID,915.633,VALID,0,VALID,99.1254,VALID,-0.0679233,VALID,19.9057,VALID,130,VALID,0.974201,
2004-05-14, 00:54:00,VALID,915.625,VALID,0,VALID,99.1991,VALID,-0.0849042,VALID,19.8898,VALID,129,VALID,1.13499,
2004-05-14, 00:55:00,VALID,915.622,VALID,0,VALID,99.1915,VALID,-0.101885,VALID,19.8736,VALID,129,VALID,1.101,
2004-05-14, 00:56:00,VALID,915.593,VALID,0,VALID,99.1991,VALID,-0.0849042,VALID,19.854,VALID,125,VALID,0.966602,
2004-05-14, 00:57:00,VALID,915.583,VALID,0,VALID,99.1648,VALID,-0.0849042,VALID,19.8446,VALID,116,VALID,0.829427,
2004-05-14, 00:58:00,VALID,915.567,VALID,0,VALID,99.1877,VALID,-0.0849042,VALID,19.8247,VALID,106,VALID,0.829514,
2004-05-14, 00:59:00,VALID,915.561,VALID,0,VALID,99.1864,VALID,-0.0679233,VALID,19.8023,VALID,114,VALID,0.785429,
2004-05-14, 01:00:00,VALID,915.573,VALID,0,VALID,99.2347,VALID,-0.101885,VALID,19.7929,VALID,130,VALID,0.966087,
2004-05-14, 01:01:00,VALID,915.587,VALID,0,VALID,99.3556,VALID,-0.101885,VALID,19.7892,VALID,130,VALID,1.00343,
2004-05-14, 01:02:00,VALID,915.596,VALID,0,VALID,99.4153,VALID,-0.101885,VALID,19.7991,VALID,127,VALID,1.13357,
2004-05-14, 01:03:00,VALID,915.604,VALID,0,VALID,99.3098,VALID,-0.101885,VALID,19.7892,VALID,115,VALID,0.864062,
2004-05-14, 01:04:00,VALID,915.606,VALID,0,VALID,99.3581,VALID,-0.0679233,VALID,19.7827,VALID,118,VALID,1.07412,
2004-05-14, 01:05:00,VALID,915.617,VALID,0,VALID,99.3377,VALID,-0.0679233,VALID,19.8021,VALID,117,VALID,1.02772,
2004-05-14, 01:06:00,VALID,915.622,VALID,0,VALID,99.325,VALID,-0.0679233,VALID,19.8182,VALID,114,VALID,1.40644,
2004-05-14, 01:07:00,VALID,915.635,VALID,0,VALID,99.2818,VALID,-0.0509425,VALID,19.8309,VALID,108,VALID,1.17094,
2004-05-14, 01:08:00,VALID,915.631,VALID,0,VALID,99.1114,VALID,-0.101885,VALID,19.854,VALID,112,VALID,1.14367,
2004-05-14, 01:09:00,VALID,915.641,VALID,0,VALID,98.9728,VALID,-0.0679233,VALID,19.8766,VALID,111,VALID,0.922619,
2004-05-14, 01:10:00,VALID,915.647,VALID,0,VALID,98.7108,VALID,-0.0679233,VALID,19.8898,VALID,117,VALID,0.718928,
2004-05-14, 01:11:00,VALID,915.644,VALID,0,VALID,98.5201,VALID,-0.0509425,VALID,19.8863,VALID,143,VALID,0.840625,
2004-05-14, 01:12:00,VALID,915.646,VALID,0,VALID,98.398,VALID,-0.101885,VALID,19.8672,VALID,137,VALID,0.925114,
2004-05-14, 01:13:00,VALID,915.625,VALID,0,VALID,98.4184,VALID,-0.101885,VALID,19.8669,VALID,136,VALID,1.16763,
2004-05-14, 01:14:00,VALID,915.615,VALID,0,VALID,98.4057,VALID,-0.0509425,VALID,19.8639,VALID,127,VALID,1.3285,
2004-05-14, 01:15:00,VALID,915.596,VALID,0,VALID,98.2442,VALID,-0.0339617,VALID,19.8605,VALID,127,VALID,1.06269,
2004-05-14, 01:16:00,VALID,915.573,VALID,0,VALID,98.0077,VALID,-0.0849042,VALID,19.8634,VALID,125,VALID,0.933966,
2004-05-14, 01:17:00,VALID,915.57,VALID,0,VALID,97.7203,VALID,-0.0509425,VALID,19.857,VALID,135,VALID,0.691134,
2004-05-14, 01:18:00,VALID,915.57,VALID,0,VALID,97.5651,VALID,-0.101885,VALID,19.8473,VALID,136,VALID,0.733041,
2004-05-14, 01:19:00,VALID,915.568,VALID,0,VALID,97.513,VALID,0.0339617,VALID,19.846,VALID,133,VALID,1.0282,
2004-05-14, 01:20:00,VALID,915.561,VALID,0,VALID,97.3909,VALID,0.0679233,VALID,19.8331,VALID,126,VALID,0.654433,
2004-05-14, 01:21:00,VALID,915.539,VALID,0,VALID,97.2447,VALID,0.0339617,VALID,19.8366,VALID,119,VALID,0.600229,
2004-05-14, 01:22:00,VALID,915.529,VALID,0,VALID,97.2193,VALID,0.0509425,VALID,19.8205,VALID,121,VALID,0.508557,
2004-05-14, 01:23:00,VALID,915.51,VALID,0,VALID,97.1913,VALID,0.0509425,VALID,19.8137,VALID,124,VALID,0.50465,
2004-05-14, 01:24:00,VALID,915.495,VALID,0,VALID,97.1671,VALID,0.0339617,VALID,19.8075,VALID,125,VALID,0.80221,
2004-05-14, 01:25:00,VALID,915.487,VALID,0,VALID,97.1595,VALID,0.0679233,VALID,19.7946,VALID,129,VALID,0.832589,
2004-05-14, 01:26:00,VALID,915.499,VALID,0,VALID,97.1557,VALID,0.0169808,VALID,19.7884,VALID,117,VALID,0.728468,
2004-05-14, 01:27:00,VALID,915.491,VALID,0,VALID,97.307,VALID,0.0679233,VALID,19.7782,VALID,113,VALID,0.911519,
2004-05-14, 01:28:00,VALID,915.496,VALID,0,VALID,97.457,VALID,0.0509425,VALID,19.7782,VALID,95,VALID,0.861979,
2004-05-14, 01:29:00,VALID,915.502,VALID,0,VALID,97.616,VALID,0.0339617,VALID,19.7944,VALID,107,VALID,0.952217,
2004-05-14, 01:30:00,VALID,915.506,VALID,0,VALID,97.5893,VALID,0.0339617,VALID,19.8013,VALID,109,VALID,1.03652,
2004-05-14, 01:31:00,VALID,915.496,VALID,0,VALID,97.5626,VALID,0.0169808,VALID,19.8108,VALID,109,VALID,1.09319,
2004-05-14, 01:32:00,VALID,915.49,VALID,0,VALID,97.5333,VALID,0.0679233,VALID,19.8137,VALID,106,VALID,1.00705,
2004-05-14, 01:33:01,VALID,915.475,VALID,0,VALID,97.4418,VALID,0.0509425,VALID,19.8048,VALID,115,VALID,0.841206,
2004-05-14, 01:34:00,VALID,915.455,VALID,0,VALID,97.4367,VALID,0.0169808,VALID,19.7658,VALID,124,VALID,0.781076,
2004-05-14, 01:35:00,VALID,915.435,VALID,0,VALID,97.5079,VALID,0.0169808,VALID,19.7365,VALID,124,VALID,0.619913,
2004-05-14, 01:36:00,VALID,915.432,VALID,0,VALID,97.6402,VALID,0.0509425,VALID,19.691,VALID,122,VALID,0.678163,
2004-05-14, 01:37:00,VALID,915.419,VALID,0,VALID,97.8156,VALID,0.0509425,VALID,19.6684,VALID,128,VALID,0.833265,
2004-05-14, 01:38:01,VALID,915.411,VALID,0,VALID,97.9263,VALID,0.0509425,VALID,19.6297,VALID,128,VALID,0.634084,
2004-05-14, 01:39:00,VALID,915.421,VALID,0,VALID,98.0623,VALID,0.0169808,VALID,19.6001,VALID,125,VALID,0.485119,
2004-05-14, 01:40:01,VALID,915.408,VALID,0,VALID,98.234,VALID,0.0169808,VALID,19.5587,VALID,118,VALID,0.480283,
2004-05-14, 01:41:01,VALID,915.402,VALID,0,VALID,98.3802,VALID,0.0169808,VALID,19.5363,VALID,109,VALID,0.786395,
2004-05-14, 01:42:01,VALID,915.397,VALID,0,VALID,98.482,VALID,0.0169808,VALID,19.4973,VALID,94,VALID,0.858467,
2004-05-14, 01:43:00,VALID,915.405,VALID,0,VALID,98.6473,VALID,0.0509425,VALID,19.4722,VALID,108,VALID,0.980114,
2004-05-14, 01:44:00,VALID,915.403,VALID,0,VALID,98.8266,VALID,0.0509425,VALID,19.4298,VALID,97,VALID,0.994474,
2004-05-14, 01:45:00,VALID,915.398,VALID,0,VALID,99.016,VALID,0.0339617,VALID,19.3972,VALID,74,VALID,0.935826,
2004-05-14, 01:46:00,VALID,915.403,VALID,0,VALID,99.086,VALID,0.0339617,VALID,19.3779,VALID,82,VALID,1.08242,
2004-05-14, 01:47:00,VALID,915.401,VALID,0,VALID,99.1406,VALID,0.0339617,VALID,19.3645,VALID,97,VALID,1.05041,
2004-05-14, 01:48:00,VALID,915.391,VALID,0,VALID,99.2157,VALID,0.0339617,VALID,19.3719,VALID,109,VALID,1.16424,
2004-05-14, 01:49:01,VALID,915.383,VALID,0,VALID,99.2398,VALID,-0.0169808,VALID,19.3604,VALID,122,VALID,1.17898,
2004-05-14, 01:50:01,VALID,915.388,VALID,0,VALID,99.2271,VALID,-0.0169808,VALID,19.3341,VALID,114,VALID,0.566016,
2004-05-14, 01:51:00,VALID,915.386,VALID,0,VALID,99.2322,VALID,0,VALID,19.3247,VALID,122,VALID,0.657774,
2004-05-14, 01:52:00,VALID,915.386,VALID,0,VALID,99.381,VALID,0,VALID,19.3212,VALID,123,VALID,0.947545,
2004-05-14, 01:53:00,VALID,915.388,VALID,0,VALID,99.414,VALID,0,VALID,19.3187,VALID,117,VALID,0.791371,
2004-05-14, 01:54:00,VALID,915.394,VALID,0,VALID,99.6022,VALID,0,VALID,19.3182,VALID,132,VALID,1.29581,
2004-05-14, 01:55:00,VALID,915.426,VALID,0,VALID,99.7065,VALID,-0.0169808,VALID,19.3078,VALID,126,VALID,0.974219,
2004-05-14, 01:56:01,VALID,915.424,VALID,0,VALID,99.6938,VALID,-0.0169808,VALID,19.3147,VALID,109,VALID,0.771949,
2004-05-14, 01:57:00,VALID,915.431,VALID,0,VALID,99.6595,VALID,-0.0169808,VALID,19.2988,VALID,115,VALID,0.817535,
2004-05-14, 01:58:00,VALID,915.423,VALID,0,VALID,99.6925,VALID,0,VALID,19.2993,VALID,117,VALID,0.711632,
2004-05-14, 01:59:00,VALID,915.414,VALID,0,VALID,99.6213,VALID,-0.0339617,VALID,19.2827,VALID,113,VALID,0.748172,
2004-05-14, 02:00:01,VALID,915.418,VALID,0,VALID,99.5819,VALID,-0.0509425,VALID,19.2633,VALID,97,VALID,0.836115,
2004-05-14, 02:01:00,VALID,915.408,VALID,0,VALID,99.4255,VALID,-0.0339617,VALID,19.2703,VALID,85,VALID,0.895117,
2004-05-14, 02:02:01,VALID,915.41,VALID,0,VALID,99.0898,VALID,-0.0339617,VALID,19.2703,VALID,78,VALID,0.805259,
2004-05-14, 02:03:00,VALID,915.404,VALID,0,VALID,98.777,VALID,-0.0169808,VALID,19.27,VALID,78,VALID,0.783026,
2004-05-14, 02:04:00,VALID,915.382,VALID,0,VALID,98.1844,VALID,-0.0169808,VALID,19.2698,VALID,99,VALID,0.973264,
2004-05-14, 02:05:01,VALID,915.36,VALID,0,VALID,97.6084,VALID,-0.0509425,VALID,19.2996,VALID,96,VALID,0.891667,
2004-05-14, 02:06:00,VALID,915.345,VALID,0,VALID,97.2218,VALID,-0.0169808,VALID,19.3247,VALID,100,VALID,1.01944,
2004-05-14, 02:07:01,VALID,915.331,VALID,0,VALID,96.7055,VALID,-0.0169808,VALID,19.3378,VALID,116,VALID,1.04818,
2004-05-14, 02:08:01,VALID,915.326,VALID,0,VALID,96.5529,VALID,0,VALID,19.354,VALID,103,VALID,0.620821,
2004-05-14, 02:09:00,VALID,915.333,VALID,0,VALID,96.4448,VALID,0,VALID,19.3381,VALID,120,VALID,0.691315,
2004-05-14, 02:10:00,VALID,915.325,VALID,0,VALID,96.3787,VALID,0,VALID,19.3281,VALID,123,VALID,0.306593,
2004-05-14, 02:11:01,VALID,915.318,VALID,0,VALID,96.2897,VALID,-0.0339617,VALID,19.315,VALID,133,VALID,0.920422,
2004-05-14, 02:12:00,VALID,915.3,VALID,0,VALID,96.1918,VALID,0,VALID,19.2959,VALID,128,VALID,0.865885,
2004-05-14, 02:13:00,VALID,915.294,VALID,0,VALID,96.2439,VALID,-0.0169808,VALID,19.2899,VALID,121,VALID,0.945313,
2004-05-14, 02:14:00,VALID,915.28,VALID,0,VALID,96.2439,VALID,-0.0339617,VALID,19.2867,VALID,121,VALID,0.764137,
2004-05-14, 02:15:00,VALID,915.279,VALID,0,VALID,96.2058,VALID,-0.0339617,VALID,19.2673,VALID,107,VALID,0.540206,
2004-05-14, 02:16:00,VALID,915.285,VALID,0,VALID,96.146,VALID,-0.0509425,VALID,19.2444,VALID,121,VALID,0.564862,
2004-05-14, 02:17:00,VALID,915.308,VALID,0,VALID,96.1422,VALID,-0.0339617,VALID,19.2285,VALID,117,VALID,0.619731,
2004-05-14, 02:18:00,VALID,915.323,VALID,0,VALID,95.9972,VALID,-0.0679233,VALID,19.2221,VALID,109,VALID,0.556504,
2004-05-14, 02:19:00,VALID,915.343,VALID,0,VALID,95.8281,VALID,-0.0169808,VALID,19.1988,VALID,116,VALID,0.958594,
2004-05-14, 02:20:00,VALID,915.363,VALID,0,VALID,95.7811,VALID,-0.0509425,VALID,19.1893,VALID,126,VALID,0.584032,
2004-05-14, 02:21:01,VALID,915.374,VALID,0,VALID,95.982,VALID,-0.0339617,VALID,19.2029,VALID,131,VALID,0.882813,
2004-05-14, 02:22:00,VALID,915.379,VALID,0,VALID,96.2528,VALID,-0.0339617,VALID,19.1963,VALID,137,VALID,0.737614,
2004-05-14, 02:23:00,VALID,915.364,VALID,0,VALID,96.5186,VALID,-0.0339617,VALID,19.1863,VALID,140,VALID,0.682351,
2004-05-14, 02:24:00,VALID,915.345,VALID,0,VALID,96.867,VALID,-0.0509425,VALID,19.1866,VALID,118,VALID,1.07903,
2004-05-14, 02:25:00,VALID,915.322,VALID,0,VALID,96.7805,VALID,-0.0339617,VALID,19.154,VALID,110,VALID,1.0621,
2004-05-14, 02:26:01,VALID,915.323,VALID,0,VALID,96.7437,VALID,-0.0339617,VALID,19.1158,VALID,116,VALID,0.890625,
2004-05-14, 02:27:01,VALID,915.316,VALID,0,VALID,96.6699,VALID,-0.0849042,VALID,19.0865,VALID,100,VALID,0.499178,
2004-05-14, 02:28:01,VALID,915.3,VALID,0,VALID,96.6432,VALID,-0.101885,VALID,19.0547,VALID,67,VALID,0.428013,
2004-05-14, 02:29:00,VALID,915.281,VALID,0,VALID,96.6127,VALID,-0.0509425,VALID,19.0288,VALID,56,VALID,0.630907,
2004-05-14, 02:30:00,VALID,915.26,VALID,0,VALID,96.6763,VALID,-0.0679233,VALID,18.9859,VALID,56,VALID,0.542969,
2004-05-14, 02:31:01,VALID,915.251,VALID,0,VALID,96.8123,VALID,-0.0339617,VALID,18.9737,VALID,75,VALID,0.701451,
2004-05-14, 02:32:00,VALID,915.238,VALID,0,VALID,96.9319,VALID,0,VALID,18.9474,VALID,70,VALID,0.863281,
2004-05-14, 02:33:00,VALID,915.244,VALID,0,VALID,97.1646,VALID,-0.0509425,VALID,18.929,VALID,70,VALID,0.968192,
2004-05-14, 02:34:01,VALID,915.247,VALID,0,VALID,97.5054,VALID,0.0339617,VALID,18.9209,VALID,78,VALID,0.837754,
2004-05-14, 02:35:00,VALID,915.268,VALID,0,VALID,97.3871,VALID,0.0509425,VALID,18.9045,VALID,71,VALID,0.96582,
2004-05-14, 02:36:00,VALID,915.273,VALID,0,VALID,97.4418,VALID,0.0339617,VALID,18.898,VALID,77,VALID,0.87282,
2004-05-14, 02:37:00,VALID,915.277,VALID,0,VALID,97.3553,VALID,0.0339617,VALID,18.8943,VALID,77,VALID,0.958452,
2004-05-14, 02:38:01,VALID,915.262,VALID,0,VALID,97.0374,VALID,0.0339617,VALID,18.9112,VALID,81,VALID,0.822856,
2004-05-14, 02:39:00,VALID,915.251,VALID,0,VALID,96.6445,VALID,0.0169808,VALID,18.9211,VALID,89,VALID,0.933966,
2004-05-14, 02:40:01,VALID,915.227,VALID,0,VALID,96.3686,VALID,0.0169808,VALID,18.9405,VALID,87,VALID,0.851926,
2004-05-14, 02:41:01,VALID,915.207,VALID,0,VALID,96.057,VALID,0.0509425,VALID,18.9497,VALID,90,VALID,0.927557,
2004-05-14, 02:42:01,VALID,915.202,VALID,0,VALID,95.762,VALID,0.0509425,VALID,18.9624,VALID,76,VALID,0.971839,
2004-05-14, 02:43:01,VALID,915.203,VALID,0,VALID,95.5484,VALID,0.0169808,VALID,18.9559,VALID,67,VALID,1.03027,
2004-05-14, 02:44:00,VALID,915.191,VALID,0,VALID,95.6476,VALID,0.0169808,VALID,18.937,VALID,74,VALID,1.3045,
2004-05-14, 02:45:01,VALID,915.183,VALID,0,VALID,95.5598,VALID,0.0339617,VALID,18.9531,VALID,92,VALID,1.30098,
2004-05-14, 02:46:00,VALID,915.169,VALID,0,VALID,95.5522,VALID,0.0169808,VALID,19.0053,VALID,96,VALID,1.32127,
2004-05-14, 02:47:00,VALID,915.147,VALID,0,VALID,95.4059,VALID,0.0679233,VALID,19.0306,VALID,100,VALID,1.0416,
2004-05-14, 02:48:00,VALID,915.129,VALID,0,VALID,95.2775,VALID,0.0339617,VALID,19.0632,VALID,106,VALID,1.21475,
2004-05-14, 02:49:00,VALID,915.106,VALID,0,VALID,95.308,VALID,-0.0509425,VALID,19.0482,VALID,94,VALID,1.18601,
2004-05-14, 02:50:00,VALID,915.097,VALID,0,VALID,95.3487,VALID,0,VALID,19.0162,VALID,80,VALID,0.994474,
2004-05-14, 02:51:00,VALID,915.088,VALID,0,VALID,95.3589,VALID,-0.0339617,VALID,18.9608,VALID,81,VALID,0.90263,
2004-05-14, 02:52:00,VALID,915.077,VALID,0,VALID,95.598,VALID,-0.0339617,VALID,18.893,VALID,78,VALID,0.896019,
2004-05-14, 02:53:00,VALID,915.081,VALID,0,VALID,96.1448,VALID,-0.0339617,VALID,18.825,VALID,87,VALID,0.836782,
2004-05-14, 02:54:01,VALID,915.074,VALID,0,VALID,96.6343,VALID,-0.0509425,VALID,18.7934,VALID,84,VALID,0.821007,
2004-05-14, 02:55:01,VALID,915.068,VALID,0,VALID,96.5771,VALID,-0.0679233,VALID,18.7253,VALID,74,VALID,0.885831,
2004-05-14, 02:56:00,VALID,915.066,VALID,0,VALID,97.2905,VALID,-0.0339617,VALID,18.6804,VALID,78,VALID,1.04651,
2004-05-14, 02:57:00,VALID,915.079,VALID,0,VALID,97.7101,VALID,-0.0339617,VALID,18.6576,VALID,79,VALID,0.999273,
2004-05-14, 02:58:00,VALID,915.093,VALID,0,VALID,97.8423,VALID,-0.0169808,VALID,18.6287,VALID,75,VALID,1.03792,
2004-05-14, 02:59:01,VALID,915.106,VALID,0,VALID,97.8665,VALID,-0.0339617,VALID,18.5766,VALID,68,VALID,1.0089,
2004-05-14, 03:00:00,VALID,915.116,VALID,0,VALID,97.8983,VALID,-0.0509425,VALID,18.5446,VALID,78,VALID,0.964648,
2004-05-14, 03:01:00,VALID,915.125,VALID,0,VALID,97.9606,VALID,0,VALID,18.5257,VALID,80,VALID,0.917614,
2004-05-14, 03:02:01,VALID,915.116,VALID,0,VALID,98.2925,VALID,-0.0849042,VALID,18.5257,VALID,85,VALID,0.998402,
2004-05-14, 03:03:01,VALID,915.101,VALID,0,VALID,98.5023,VALID,-0.0169808,VALID,18.5517,VALID,88,VALID,1.06059,
2004-05-14, 03:04:00,VALID,915.096,VALID,0,VALID,98.4692,VALID,-0.0509425,VALID,18.5609,VALID,99,VALID,1.10565,
2004-05-14, 03:05:00,VALID,915.098,VALID,0,VALID,98.2365,VALID,-0.0679233,VALID,18.5704,VALID,93,VALID,0.977289,
2004-05-14, 03:06:01,VALID,915.083,VALID,0,VALID,98.0852,VALID,-0.0679233,VALID,18.5835,VALID,93,VALID,1.18325,
2004-05-14, 03:07:01,VALID,915.075,VALID,0,VALID,97.9085,VALID,-0.0509425,VALID,18.5835,VALID,87,VALID,1.3125,
2004-05-14, 03:08:00,VALID,915.086,VALID,0,VALID,97.6923,VALID,-0.0509425,VALID,18.5801,VALID,93,VALID,1.48047,
2004-05-14, 03:09:01,VALID,915.089,VALID,0,VALID,97.5613,VALID,-0.0849042,VALID,18.5932,VALID,97,VALID,1.52001,
2004-05-14, 03:10:01,VALID,915.098,VALID,0,VALID,97.5143,VALID,-0.0679233,VALID,18.6126,VALID,99,VALID,1.46317,
2004-05-14, 03:11:00,VALID,915.089,VALID,0,VALID,97.3808,VALID,-0.0509425,VALID,18.6094,VALID,102,VALID,1.29799,
2004-05-14, 03:12:00,VALID,915.088,VALID,0,VALID,97.1455,VALID,-0.0679233,VALID,18.5994,VALID,96,VALID,1.38808,
2004-05-14, 03:13:01,VALID,915.085,VALID,0,VALID,97.2434,VALID,0.0339617,VALID,18.5893,VALID,97,VALID,1.46784,
2004-05-14, 03:14:00,VALID,915.078,VALID,0,VALID,97.4685,VALID,0.0509425,VALID,18.566,VALID,105,VALID,1.37969,
2004-05-14, 03:15:01,VALID,915.069,VALID,0,VALID,97.4164,VALID,0.0679233,VALID,18.5695,VALID,91,VALID,1.26119,
2004-05-14, 03:16:00,VALID,915.056,VALID,0,VALID,97.5079,VALID,0.0169808,VALID,18.5496,VALID,103,VALID,1.32304,
2004-05-14, 03:17:01,VALID,915.049,VALID,0,VALID,97.7076,VALID,0.0169808,VALID,18.5473,VALID,112,VALID,1.64489,
2004-05-14, 03:18:01,VALID,915.051,VALID,0,VALID,97.7139,VALID,0.0169808,VALID,18.5399,VALID,115,VALID,1.42278,
2004-05-14, 03:19:00,VALID,915.062,VALID,0,VALID,97.5931,VALID,0.0339617,VALID,18.5273,VALID,114,VALID,1.33526,
2004-05-14, 03:20:01,VALID,915.077,VALID,0,VALID,97.8868,VALID,0.0169808,VALID,18.5081,VALID,110,VALID,1.259,
2004-05-14, 03:21:00,VALID,915.088,VALID,0,VALID,98.1145,VALID,0.0339617,VALID,18.5084,VALID,103,VALID,1.18519,
2004-05-14, 03:22:01,VALID,915.104,VALID,0,VALID,98.1348,VALID,0.0679233,VALID,18.4957,VALID,100,VALID,1.19607,
2004-05-14, 03:23:01,VALID,915.116,VALID,0,VALID,98.2594,VALID,0.0169808,VALID,18.4791,VALID,99,VALID,1.14211,
2004-05-14, 03:24:00,VALID,915.115,VALID,0,VALID,98.1641,VALID,0.0169808,VALID,18.4897,VALID,102,VALID,1.38423,
2004-05-14, 03:25:00,VALID,915.12,VALID,0,VALID,98.1119,VALID,0.0339617,VALID,18.4662,VALID,99,VALID,1.22563,
2004-05-14, 03:26:00,VALID,915.112,VALID,0,VALID,98.0572,VALID,0,VALID,18.4632,VALID,91,VALID,1.07903,
2004-05-14, 03:27:01,VALID,915.119,VALID,0,VALID,97.9352,VALID,0.0339617,VALID,18.4505,VALID,91,VALID,1.02734,
2004-05-14, 03:28:01,VALID,915.115,VALID,0,VALID,97.761,VALID,0.0169808,VALID,18.4182,VALID,99,VALID,1.03571,
2004-05-14, 03:29:01,VALID,915.127,VALID,0,VALID,97.6376,VALID,0.0339617,VALID,18.3693,VALID,92,VALID,0.823153,
2004-05-14, 03:30:01,VALID,915.134,VALID,0,VALID,97.5511,VALID,0,VALID,18.3343,VALID,100,VALID,0.688368,